Location: Radomski Observatory
(40.2854°N, 79.5145°W)
Time: 16:43:00
(UTC-04:00)

Daily predictions for brighter satellites

Satellite Brightness Start Highest point End
(mag) Time Altitude Azimuth Time Altitude Azimuth Time Altitude Azimuth
Cosmos 2285 Rocket 4.4 21:00:04 10° N 21:06:11 49° ENE 21:12:18 10° SE
Cosmos 1743 2.8 21:03:42 10° N 21:07:32 61° E 21:11:19 10° SSE
Cosmos 1726 Rocket 3.7 21:06:32 10° N 21:10:58 63° E 21:15:20 10° SSE
Cosmos 2233 Rocket 4.2 21:04:43 10° N 21:11:00 80° W 21:17:11 10° S
ALOS 2.7 21:09:50 10° S 21:14:28 68° WSW 21:19:08 10° NNW
Cosmos 158 Rocket 4.2 21:09:27 10° SSW 21:14:30 78° WNW 21:19:44 10° NNE
SeaSat 1 3.3 21:10:54 10° ESE 21:15:22 36° NE 21:19:52 10° N
Okean 2 3.8 21:11:25 10° SSE 21:15:25 45° E 21:19:26 10° NNE
CZ-3C R/B 4.4 21:16:28 10° SSW 21:17:51 10° SSW 21:18:59 10° SSW
Cosmos 1464 Rocket 4.2 21:13:31 10° N 21:19:33 55° E 21:25:34 10° SSE
YAOGAN 11 4.4 21:17:10 10° S 21:21:31 71° WSW 21:25:52 10° NNW
Cosmos 2058 Rocket 3.1 21:17:37 10° N 21:21:59 63° E 21:26:17 10° SSE
APEX 4.3 21:18:36 10° N 21:22:21 39° ENE 21:26:56 11° SE
Cosmos 2098 Rocket 4.0 21:19:38 10° NNW 21:22:48 40° W 21:26:34 10° SSW
Meteor 1-19 Rocket 4.3 21:19:11 10° S 21:24:49 87° W 21:30:27 10° N
Meteor 2-4 Rocket 3.8 21:20:37 10° S 21:26:25 72° E 21:32:19 10° NNE
Cosmos 1602 Rocket 4.3 21:25:06 10° SSE 21:29:07 34° E 21:33:10 10° NNE
Cosmos 2333 Rocket 3.9 21:24:31 10° SW 21:29:45 38° WNW 21:35:02 10° N
Cosmos 2251 Rocket 4.0 21:25:23 10° SSW 21:30:40 69° WNW 21:36:01 10° NNE
Cosmos 1461 4.0 21:27:27 10° NNW 21:31:22 32° NE 21:34:38 13° ESE
deb Chang Zheng 4 3.6 21:28:01 10° NNE 21:32:27 86° ESE 21:36:49 10° SSW
Cosmos 2297 3.8 21:27:17 10° NNW 21:33:00 82° WSW 21:38:44 10° SSE
ATLAS 3B R/B 4.2 21:29:55 10° SE 21:34:27 17° ESE 21:38:57 10° ENE
Milstar 3 Cent rocket 3.9 21:29:49 10° WSW 21:35:35 22° SSW 21:39:27 11° SSE
Cosmos 2034 Rocket 4.2 21:31:09 10° N 21:37:26 58° E 21:43:36 10° SSE
PSLV R/B 3.8 21:37:02 16° SE 21:39:11 39° ENE 21:42:07 10° N
CZ-2C R/B 2.1 21:37:11 10° SSW 21:39:18 31° W 21:41:26 10° NNW
ERS-1 Rocket 3.3 21:38:22 10° S 21:43:20 65° WSW 21:48:21 10° NNW
Envisat 3.1 21:39:39 11° SSE 21:44:27 66° ENE 21:49:30 10° N
BREEZE-M DEB (TANK) 2.5 21:39:44 10° SW 21:45:04 57° SSE 21:47:22 10° ENE
USA 234 3.6 21:43:14 13° ESE 21:49:09 62° NE 21:55:37 10° NW
YAOGAN 6 3.7 21:50:25 19° ESE 21:52:20 30° ENE 21:55:40 10° N
H-2A R/B 2.7 21:48:58 10° S 21:53:06 55° W 21:57:21 10° NNW
MetOp-A 4.2 21:56:20 17° SSE 22:00:27 64° ENE 22:05:45 10° N
Abrixas rocket 2.2 21:58:32 10° WNW 22:01:58 84° SSW 22:03:38 28° SE
Cosmos 1626 Rocket 3.5 21:58:09 10° S 22:02:35 80° E 22:07:02 10° N
ATLAS CENTAUR R/B 4.3 21:59:08 10° WSW 22:03:20 26° NW 22:07:35 10° N
Atlas Centaur 2 3.6 22:06:07 10° SW 22:13:03 35° SSE 22:18:15 18° ESE
Cosmos 2278 Rocket 4.5 22:10:01 10° WNW 22:13:47 18° W 22:17:34 10° SW
CZ-4C R/B 4.5 22:15:26 25° ESE 22:17:00 32° ENE 22:20:43 10° N
Cosmos 2228 4.0 22:13:20 10° NNW 22:17:34 46° W 22:21:32 11° SSW
H-2A R/B 3.2 22:19:20 20° ESE 22:21:20 26° ENE 22:25:27 10° N
PSLV R/B 3.4 22:17:55 10° WSW 22:21:23 53° SSE 22:22:27 37° ESE
Aureole 2 Rocket 4.1 22:17:50 10° SW 22:21:34 38° WNW 22:24:59 10° N
Cosmos 1939 Rocket 4.4 22:18:35 10° SSW 22:22:22 34° W 22:26:11 10° NNW
COSMOS 2455 2.8 22:16:56 10° SSW 22:22:50 63° ESE 22:28:46 10° NE
Cosmos 1992 Rocket 4.5 22:18:22 10° N 22:23:25 46° ENE 22:25:45 28° ESE
CZ-4 R/B 4.0 22:19:29 10° NNE 22:24:25 59° E 22:27:22 24° S
Cosmos 2369 Rocket 3.0 22:23:25 10° N 22:28:43 39° ENE 22:31:20 25° ESE
SPOT 1/Viking Rocket 3.5 22:26:44 27° SSE 22:29:39 84° ENE 22:34:50 10° NNW
SPOT 5 3.5 22:26:56 17° SSW 22:30:09 46° W 22:34:21 10° NNW
ARGOS 3.2 22:29:23 29° SSE 22:32:13 70° ENE 22:37:38 10° N
SL-16 R/B 4.2 22:28:31 10° WSW 22:33:24 29° WNW 22:38:18 10° N
Lacrosse 5 rocket 4.3 22:35:11 10° WNW 22:37:53 17° NNW 22:40:41 10° NNE
Geosat 3.9 22:34:01 10° NNE 22:39:02 63° ESE 22:42:04 24° S
Cosmos 1190 Rocket 4.3 22:37:27 34° SSE 22:39:11 46° ESE 22:44:16 10° NNE
NOAA 11 4.1 22:37:27 32° SSE 22:40:02 75° ENE 22:45:28 10° N
Landsat 7 4.1 22:40:03 36° SE 22:41:36 52° ENE 22:46:14 10° N
NAVSTAR 52 R/B(PAM-D 4.4 22:39:58 10° W 22:43:46 57° SSW 22:43:46 57° SSW
DEBRIS 3.6 22:42:21 10° WNW 22:45:19 25° SW 22:45:19 25° SW
Meteor 1-22 Rocket 4.4 22:40:08 10° N 22:45:35 55° ENE 22:47:39 36° SE
SeaSat 1 3.9 22:50:09 18° SSW 22:52:54 30° WSW 22:57:13 10° NW
Cosmos 1758 Rocket 3.7 22:53:08 49° ESE 22:53:40 53° E 22:57:56 10° NNE
Lacrosse 4 Rocket 2.4 22:55:02 30° ENE 22:55:02 30° ENE 22:57:38 10° NE
SL-08 RB Rocket 3.7 22:55:15 44° S 22:56:41 79° WSW 23:01:15 10° NNW
Terra 2.1 22:56:20 43° ESE 22:57:24 52° ENE 23:02:02 10° N
CARTOSAT-1 3.8 22:57:34 49° ESE 22:58:13 55° ENE 23:02:27 10° N
CZ-4B R/B 4.5 22:53:27 10° N 22:58:15 45° WNW 23:03:10 10° SW
Cosmos 1066 Rocket 4.2 22:57:30 29° S 23:00:35 86° W 23:06:24 10° N
Cosmos 1346 Rocket 2.5 23:03:05 76° SSE 23:03:19 82° E 23:07:15 10° N
Cosmos 1461 4.5 23:06:59 10° WNW 23:10:24 24° WSW 23:11:08 22° SW
Cosmos 1825 Rocket 4.2 23:10:25 32° SW 23:12:12 53° W 23:16:35 10° N
Cosmos 1900 4.4 23:17:41 58° SE 23:17:58 59° ESE 23:23:02 10° NE
Meteor 1-21 4.2 23:19:02 47° S 23:20:49 83° E 23:26:39 10° N
Cosmos 1758 4.3 23:18:19 10° N 23:21:45 37° ENE 23:21:45 37° ENE
Cosmos 1842 3.7 23:23:02 53° NE 23:23:02 53° NE 23:26:18 10° NNE
Nadezhda 4 Rocket 4.4 23:21:21 41° ESE 23:22:29 44° E 23:28:26 10° NNE
ATLAS 3B R/B 2.9 23:16:52 12° SSW 23:24:14 85° ESE 23:31:50 10° NE
Cosmos 1634 Rocket 4.5 23:19:10 10° NNW 23:25:08 54° W 23:27:54 31° SSW
Cosmos 1943 3.6 23:23:34 20° SW 23:27:26 63° WNW 23:33:06 10° NNE
Cosmos 407 Rocket 3.5 23:27:23 45° SSW 23:29:04 79° WNW 23:34:20 10° NNE
USA 234 4.0 23:30:35 33° SSW 23:32:18 38° SW 23:38:22 10° WNW
Cosmos 1943 Rocket 2.3 23:35:55 10° NNW 23:41:24 58° ENE 23:42:15 52° E
Cosmos 1766 3.9 23:38:34 10° NNW 23:42:13 51° WNW 23:42:13 51° WNW
Cosmos 1954 Rocket 3.9 23:47:02 73° S 23:47:34 87° ESE 23:52:54 10° NNE
CZ-4B R/B 4.1 23:50:30 14° NE 23:50:30 14° NE 23:51:47 10° NNE
Cosmos 2279 Rocket 4.3 23:44:48 10° NNW 23:50:54 59° W 23:52:43 43° SW
